User: anonymous   Login
Location: Caltech
(34.1382°N, 118.1253°W)
Time: 00:25:35
(UTC-07:00)
Language:

Cosmos 1758 Rocket - Orbit

View from above orbital plane
View from above orbital plane
View from above satellite
View from above satellite

Ground track
Ground track

The orbit data is extracted from the following two-line orbital elements,

1 16792U 86046B   15215.19896061  .00000260  00000-0  28891-4 0  9993
2 16792 082.4847 125.9284 0025105 028.2880 132.4563 14.82946750573502
Epoch (UTC): 03 August 2015 04:46:30
Eccentricity: 0.0025105
inclination: 82.4847°
perigee height: 602 km
apogee height: 637 km
right ascension of ascending node: 125.9284°
argument of perigee: 28.2880°
revolutions per day: 14.82946750
mean anomaly at epoch: 132.4563°
orbit number at epoch: 57350

The dashed part of the orbit path shows where the satellite is in the earth's shadow,  

DLR